This is the latest recevied weather packets stored in our database for station/object WX6HNX-6. If no packets are shown the sender has not sent any weather packets the latest 10 day(s).
| Time | Temp. | Humidity | Pressure | Rain* | Wind** | Luminosity | Snow |
|---|---|---|---|---|---|---|---|
| 1777938519 | 20.56° C | 50% | 1013 hPa | 0 mm | - | - | - |
| 1777938219 | 20.56° C | 50% | 1012.9 hPa | 0 mm | - | - | - |
| 1777937919 | 20.56° C | 51% | 1013 hPa | 0 mm | - | - | - |
| 1777937619 | 20.56° C | 50% | 1012.9 hPa | 0 mm | - | - | - |
| 1777937322 | 21.11° C | 50% | 1012.9 hPa | 0 mm | - | - | - |
| 1777937019 | 21.11° C | 50% | 1013 hPa | 0 mm | - | - | - |
| 1777936719 | 21.11° C | 49% | 1013.1 hPa | 0 mm | - | - | - |
| 1777936419 | 20.56° C | 49% | 1013.1 hPa | 0 mm | - | - | - |
| 1777936119 | 20.56° C | 51% | 1013.2 hPa | 0 mm | - | - | - |
| 1777935819 | 20.56° C | 49% | 1013.2 hPa | 0 mm | - | - | - |
| 1777935520 | 20° C | 52% | 1013.2 hPa | 0 mm | - | - | - |
| 1777935219 | 20° C | 52% | 1013.3 hPa | 0 mm | - | - | - |
| 1777934919 | 20° C | 51% | 1013.4 hPa | 0 mm | - | - | - |
| 1777934619 | 20° C | 54% | 1013.5 hPa | 0 mm | - | - | - |
| 1777934319 | 20° C | 51% | 1013.6 hPa | 0 mm | - | - | - |
| 1777934019 | 19.44° C | 52% | 1013.7 hPa | 0 mm | - | - | - |
| 1777933486 | 18.89° C | 58% | 1013.8 hPa | 0 mm | - | - | - |
| 1777933187 | 18.89° C | 57% | 1013.9 hPa | 0 mm | - | - | - |
| 1777932886 | 18.89° C | 58% | 1013.9 hPa | 0 mm | - | - | - |
| 1777932586 | 18.89° C | 61% | 1013.9 hPa | 0 mm | - | - | - |
| 1777932286 | 18.89° C | 61% | 1013.9 hPa | 0 mm | - | - | - |
| 1777931986 | 18.33° C | 58% | 1014 hPa | 0 mm | - | - | - |
| 1777931686 | 18.33° C | 58% | 1014 hPa | 0 mm | - | - | - |
| 1777931386 | 18.89° C | 57% | 1014.1 hPa | 0 mm | - | - | - |
| 1777931086 | 18.89° C | 56% | 1014.2 hPa | 0 mm | - | - | - |
* Rain latest hour (hover to see other rain measurements)
** Current wind speed in m/s (hover to see current wind gust speed)